カタログに戻る

STARLINK-34096

運用中通信VLEO
NORAD 64043·PAYLOAD·🇺🇸 United States

打ち上げ May 16, 2025 から Vandenberg Space Force Base

Loading…

次のパス (今後24時間)

TLE

最新Source: CelesTrak SupGP

元期: Sep 15, 2026, 02:26 UTC

1 64043C 25102X   26258.10187500  .00084718  00000+0  29475-2 0  2586
2 64043  70.0012 355.0341 0003504 268.4431 339.7555 15.29530792    11

AllMySatでSTARLINK-34096をリアルタイム追跡

Download on the App Store